Regional Weather Roundup
Issued by NWS

Home | Current Version | Previous Version | Text Only | Print | Product List | Glossary On
Versions: 1 2 3 4 5 6 7 8 9 10 11 12 13 14 15 16 17 18 19 20 21 22 23 24 25 26 27 28 29 30 31 32 33 34 35 36 37 38 39 40 41 42 43 44 45 46 47 48 49 50
000
ASUS43 KMKX 220400
RWRWI

WISCONSIN REGIONAL WEATHER ROUNDUP
NATIONAL WEATHER SERVICE MILWAUKEE/SULLIVAN WI
1000 PM CST SAT JAN 21 2017

NOTE: "FAIR" INDICATES FEW OR NO CLOUDS BELOW 12,000 FEET WITH NO
SIGNIFICANT WEATHER AND/OR OBSTRUCTIONS TO VISIBILITY.

WIZ001-002-006>008-014>016-023>028-220500-
NORTHWEST WISCONSIN

CITY           SKY/WX    TMP DP  RH WIND       PRES   REMARKS
SUPERIOR ARPT  FOG       35  35 100 NE6       29.54S VSB 1   WCI  30
ASHLAND        FOG       34  34 100 CALM      29.53R VSB 1/4
HAYWARD        FOG       35  34  96 CALM      29.51R VSB 3/4
SIREN          FOG       35  34  99 CALM      29.53R VSB 3/4
CUMBERLAND     FOG       32  32 100 CALM      29.50S VSB 1/2
RICE LAKE      FOG       34  34 100 CALM      29.52R VSB<1/4
CHETEK         FOG       33  33 100 CALM      29.51R VSB 1/2
LADYSMITH      FOG       35  35  99 CALM      29.51R VSB 1/2
EAU CLAIRE     NOT AVBL
MENOMONIE        N/A    N/A N/A N/A MISG        N/A
NEW RICHMOND   FOG       33  33 100 CALM      29.52R VSB 1/2
OSCEOLA        FOG       34  34 100 CALM      29.55R VSB 1/4
$$

WIZ003>005-009-010-017-018-220500-
NORTH CENTRAL WISCONSIN

CITY           SKY/WX    TMP DP  RH WIND       PRES   REMARKS
MANITOWISH WTR CLOUDY    34  34 100 SE3       29.49R FOG
ARBOR VITAE    CLOUDY    37  36  96 CALM      29.49S FOG
WOODRUFF       CLOUDY    37  36  96 CALM      29.49S FOG
RHINELANDER    FOG       35  35 100 SE3       29.50S VSB 1/4
EAGLE RIVER    CLOUDY    34  34 100 CALM      29.49S FOG
LAND O LAKES   CLOUDY    35  35 100 CALM      29.50S
PHILLIPS       FOG       34  34 100 CALM      29.49S VSB 1/2
TOMAHAWK       FOG       33  33  98 CALM      29.50S VSB 1/4
MEDFORD        FOG       33  33  99 SE3       29.49R VSB 1/4
MERRILL        DRZL/FOG  34  34 100 CALM        N/A  VSB 1/4
$$

WIZ029-030-035-036-043>047-220500-
CENTRAL WISCONSIN

CITY           SKY/WX    TMP DP  RH WIND       PRES   REMARKS
WAUSAU         FOG       34  34 100 SE3       29.49S VSB 1/4
MOSINEE        FOG       36  36 100 SE3       29.51R VSB 1/4
MARSHFIELD     FOG       35  34  96 S3        29.49R VSB 1/4
STEVENS POINT  FOG       34  34 100 CALM      29.52R VSB 1/4
WAUPACA        FOG       36  35  96 CALM      29.54R VSB 1/2
WAUTOMA        FOG       35  34  96 CALM      29.54S VSB 1/4
WISC RAPIDS    FOG       38  38 100 S5        29.53R VSB 1/4 WCI  34
CAMP DOUGLAS   CLOUDY    39  39 100 S5        29.52R FOG
$$

WIZ011>013-019>022-031-037>040-048>050-220500-
NORTHEAST WISCONSIN

CITY           SKY/WX    TMP DP  RH WIND       PRES   REMARKS
ANTIGO         FOG       33  33 100 CALM      29.50S VSB 1/2
SHAWANO        CLOUDY    37  35  96 CALM      29.53R FOG
OCONTO         CLOUDY    33  33  99 CALM      29.53R VSB 1/4
STURGEON BAY   FOG       39  39 100 SW6       29.54R VSB 1/2 WCI  35
GREEN BAY      FOG       38  38 100 SW3       29.54R VSB 1/2
MANITOWOC      FOG       41  39  93 MISG      29.54S VSB 1/2
APPLETON       FOG       36  36 100 CALM      29.52S VSB 1/4
CLINTONVILLE   FOG       34  34 100 CALM      29.53R VSB 1/2
OSHKOSH        FOG       36  36 100 S6        29.54R VSB 1/2 WCI  31
$$

WIZ032>034-041-042-053>061-220500-
SOUTHWEST WISCONSIN

CITY           SKY/WX    TMP DP  RH WIND       PRES   REMARKS
LA CROSSE      CLOUDY    41  38  89 S7        29.53R
SPARTA         FOG       38  38 100 CALM        N/A  VSB 1
VIROQUA        CLOUDY    37  37 100 SW5       29.53R VSB 1/4 WCI  33
BOSCOBEL       FOG       40  39  97 CALM      29.56R VSB 3/4
PRAIRIE DU CHI CLOUDY    37  36  96 CALM      29.55R FOG
PLATTEVILLE    CLOUDY    39  39 100 SW6       29.56R VSB 1/2
$$

WIZ056-057-062-063-064-067-068-220500-
SOUTH CENTRAL WISCONSIN

CITY           SKY/WX    TMP DP  RH WIND       PRES   REMARKS
REEDSBURG      FOG       39  39 100 S7        29.54R VSB 1/2 WCI  34
BARABOO/DELLS  CLOUDY    40  39  99 SW7       29.54R FOG     WCI  35
LONE ROCK      FOG       39  38  96 N3        29.56R VSB 3/4
MINERAL POINT  LGT RAIN  41  41 100 SW6       29.55R VSB 1/4
MADISON        CLOUDY    40  39  97 S5        29.57R FOG
MIDDLETON      CLOUDY    42  42 100 SW5       29.56R
WATERTOWN      CLOUDY    40  40 100 S5        29.56R FOG
MONROE         FOG       39  39 100 S7        29.57R VSB 1/2 WCI  34
JANESVILLE     CLOUDY    43  41  93 SW5       29.57R
$$

WIZ051-052-058>065-066-070>072-220500-
SOUTHEAST WISCONSIN

CITY           SKY/WX    TMP DP  RH WIND       PRES   REMARKS
MILWAUKEE      CLOUDY    44  40  85 W9        29.58R
WAUKESHA       CLOUDY    39  37  93 SW5       29.58S FOG
MILWAUKEE/TIMM CLOUDY    41  37  87 W6        29.58R
RACINE         CLOUDY    43  40  89 W7        29.59R
KENOSHA        CLOUDY    42  40  92 W9        29.58R FOG
FOND DU LAC    FOG       40  37  89 S5        29.55R VSB 1
SHEBOYGAN      CLOUDY    39  38  96 SW5       29.55R FOG
WEST BEND      CLOUDY    41  41 100 SW6       29.56R
JUNEAU         CLOUDY    39  38  97 SW3       29.57R FOG
$$

LSZ147-162-220500-
LAKE SUPERIOR

STATION/POSITION TIME  TEMP    WIND        PRES    WAVE
                       AIR SEA DIR/SP/G            HT/PER
                 (UTC) (F)     (DEG/KT/KT) (MB)    (FT/S)
DEVILS ISLAND    0300   35      40/ 10/ 10 1000.4R
PORT WING        0340   34      40/  5/  6 1000.7R
SAXON HARBOR     0330   33      CALM  /  1  999.7R
$$

LMZ867-665-643>646-220500-
LAKE MICHIGAN

STATION/POSITION TIME  TEMP    WIND        PRES    WAVE
                       AIR SEA DIR/SP/G            HT/PER
                 (UTC) (F)     (DEG/KT/KT) (MB)    (FT/S)
NORTHPORT PIER   0340   40     190/  2/  6 1000.0R
SISTER BAY       0250   40     180/  9/ 11   N/A
KEWAUNEE LAKESHO 0330   39      CALM  /  1 1000.2R
SHEBOYGAN LAKESH 0300   44     240/  5/  5 1000.5S
PORT WASHINGTON  0330   43     220/  2/  4 1002.0S
KENOSHA   LAKESH 0300   44     260/ 10/ 13 1002.0
$$

TC  - TEMPERATURE IN CELSIUS
VSB - VISIBILITY IN STATUTE MILES
WCI - WIND CHILL INDEX
HX  - HEAT INDEX





USA.gov is the U.S. government's official web portal to all federal, state and local government web resources and services.